This is the latest recevied weather packets stored in our database for station/object KC8SWY-15. If no packets are shown the sender has not sent any weather packets the latest 10 day(s).
| Time | Temp. | Humidity | Pressure | Rain* | Wind** | Luminosity | Snow |
|---|---|---|---|---|---|---|---|
| 1777931972 | 24.44° C | 38% | 998.8 hPa | 0 mm | - | - | - |
| 1777931672 | 24.44° C | 39% | 998.7 hPa | 0 mm | - | - | - |
| 1777931372 | 24.44° C | 38% | 998.6 hPa | 0 mm | - | - | - |
| 1777931073 | 24.44° C | 39% | 998.7 hPa | 0 mm | - | - | - |
| 1777930773 | 24.44° C | 41% | 998.7 hPa | 0 mm | - | - | - |
| 1777930473 | 24.44° C | 40% | 998.9 hPa | 0 mm | - | - | - |
| 1777930172 | 24.44° C | 40% | 999.1 hPa | 0 mm | - | - | - |
| 1777929873 | 24.44° C | 42% | 999.1 hPa | 0 mm | - | - | - |
| 1777929573 | 24.44° C | 42% | 999.2 hPa | 0 mm | - | - | - |
| 1777929273 | 24.44° C | 41% | 999.3 hPa | 0 mm | - | - | - |
| 1777928973 | 23.89° C | 43% | 999.4 hPa | 0 mm | - | - | - |
| 1777928673 | 24.44° C | 43% | 999.4 hPa | 0 mm | - | - | - |
| 1777928373 | 23.89° C | 43% | 999.5 hPa | 0 mm | - | - | - |
| 1777928073 | 24.44° C | 41% | 999.6 hPa | 0 mm | - | - | - |
| 1777927773 | 25° C | 40% | 999.6 hPa | 0 mm | - | - | - |
| 1777927473 | 24.44° C | 44% | 999.6 hPa | 0 mm | - | - | - |
| 1777927173 | 24.44° C | 41% | 999.7 hPa | 0 mm | - | - | - |
| 1777926873 | 24.44° C | 41% | 999.6 hPa | 0 mm | - | - | - |
| 1777926573 | 24.44° C | 40% | 999.8 hPa | 0 mm | - | - | - |
| 1777926273 | 24.44° C | 40% | 999.7 hPa | 0 mm | - | - | - |
| 1777925973 | 24.44° C | 41% | 999.8 hPa | 0 mm | - | - | - |
| 1777925673 | 24.44° C | 43% | 999.8 hPa | 0 mm | - | - | - |
| 1777925373 | 23.89° C | 42% | 999.8 hPa | 0 mm | - | - | - |
| 1777925073 | 23.89° C | 42% | 999.8 hPa | 0 mm | - | - | - |
| 1777924773 | 23.89° C | 44% | 999.9 hPa | 0 mm | - | - | - |
* Rain latest hour (hover to see other rain measurements)
** Current wind speed in m/s (hover to see current wind gust speed)